Regional Weather Roundup
Issued by NWS

Home | Current Version | Previous Version | Text Only | Print | Product List | Glossary Off
Versions: 1 2 3 4 5 6 7 8 9 10 11 12 13 14 15 16 17 18 19 20 21 22 23 24 25 26 27 28 29 30 31 32 33 34 35 36 37 38 39 40 41 42 43 44 45 46 47 48 49 50

298
ASUS45 KBOU 100007
RWRCO

WEATHER ROUNDUP FOR COLORADO
NATIONAL WEATHER SERVICE DENVER/BOULDER CO
500 PM MST TUE FEB 09 2016

NOTE: "FAIR" INDICATES FEW OR NO CLOUDS BELOW 12000 FEET WITH NO
SIGNIFICANT WEATHER AND/OR OBSTRUCTIONS TO VISIBILITY.

COZ001>005-013-030-031-100100-
...NORTHWEST COLORADO...

CITY           SKY/WX    TMP DP  RH WIND       PRES   REMARKS
CRAIG          MIX PCPN  19  14  81 SW5       30.48R WCI  12
HAYDEN         CLOUDY    28  16  59 CALM      30.47S
MEEKER         CLOUDY    34  22  61 CALM      30.45S
MOUNT WERNER   NOT AVBL
STEAMBOAT SPGS CLOUDY    27  17  64 CALM      30.47R
WALDEN         CLEAR     21  14  73 CALM      30.45R
$$

COZ006>008-011-100100-
...WEST CENTRAL VALLEYS...

CITY           SKY/WX    TMP DP  RH WIND       PRES   REMARKS
GRAND JUNCTION CLEAR     42  28  57 CALM      30.45R
MONTROSE       CLEAR     44  22  41 CALM      30.46S
EAGLE          CLEAR     39  19  45 CALM      30.48R
RIFLE          CLEAR     39  24  55 SE3       30.44S
DELTA          CLEAR     47  26  43 W3        30.46R
NUCLA          NOT AVBL
$$

COZ017>023-064>068-100100-
...SOUTHWEST COLORADO...

CITY           SKY/WX    TMP DP  RH WIND       PRES   REMARKS
DURANGO        CLEAR     43  19  38 E3        30.38R
CORTEZ         CLEAR     48  27  44 S3        30.37S
PAGOSA SPRINGS CLEAR     47  18  32 CALM      30.40R
TELLURIDE      CLOUDY    42  16  35 W13G18    30.48R
WOLF CREEK PAS CLOUDY    32  -4  21 NW8       30.55S WCI  25
$$

COZ009-010-012-014-032>034-037-058>063-100100-
...CENTRAL COLORADO...

CITY           SKY/WX    TMP DP  RH WIND       PRES   REMARKS
ASPEN          CLOUDY    33  19  56 NW7       30.44S WCI  27
BUENA VISTA    CLOUDY    46   9  21 NW16      30.38R
COPPER MTN     CLOUDY    30   5  34 NW17G23   30.52S WCI  18
BERTHOUD PASS  FAIR      19   9  63 N13G23    30.51R WCI   7
COTTONWOOD PAS CLOUDY    45  -9  10 NW9G16    30.43F
GUNNISON       CLOUDY    18   9  68 NE7       30.53R WCI   8
KREMMLING      CLOUDY    18   9  68 CALM      30.51S
LEADVILLE      CLOUDY    36   0  21 N17       30.45R
MONARCH PASS   CLOUDY    32   7  34 W9        30.61S WCI  24
SALIDA         NOT AVBL
SUNLIGHT       CLEAR     32  19  59 CALM      30.55S
WILKERSON PASS CLEAR     32   0  25 N5        30.50R WCI  27
$$

COZ069>075-100100-
...SAN LUIS VALLEY/SANGRE DE CRISTO MOUNTAINS...

CITY           SKY/WX    TMP DP  RH WIND       PRES   REMARKS
ALAMOSA        CLEAR     45  15  30 CALM      30.38S
LA VETA PASS   CLEAR     34  10  37 NE5       30.45S WCI  30
SAGUACHE       CLEAR     39  21  48 SE5       30.41R
$$

COZ035-036-038>040-100100-
...NORTHERN COLORADO FRONT RANGE...

CITY           SKY/WX    TMP DP  RH WIND       PRES   REMARKS
DENVER INTL AP PTCLDY    47  23  38 S5        30.28S
DMNS CITY PARK   N/A     51  18  27 E10       30.28S
AURORA         NOT AVBL
FRONT RANGE AP PTCLDY    45  23  42 MISG      30.30S
ERIE MUNI ARPT CLEAR     47  26  43 SE8       30.28R
BOULDER MUN AP CLEAR     52  23  32 NE5       30.27S
CENTENNIAL     CLEAR     48  20  32 E5        30.30S
BROOMFIELD     CLEAR     54  19  26 E8        30.29S
FORT COLLINS   CLEAR     46  25  42 S7        30.28F
LONGMONT       CLEAR     52  26  36 CALM      30.30R
$$

COZ041-046-047-076>085-087-088-100100-
...PIKES PEAK/PALMER DIVIDE AND SOUTHERN FOOTHILLS...

CITY           SKY/WX    TMP DP  RH WIND       PRES   REMARKS
COLO. SPRINGS  CLEAR     46  18  32 S6        30.35R
A. F. ACADEMY  NOT AVBL
SCHRIEVER AFB  FAIR      39  23  52 W8        30.35R
ELLICOTT       NOT AVBL
FALCON         NOT AVBL
FORT CARSON    CLEAR     46  24  42 S5        30.32S
LIMON          CLEAR     37  26  64 W7        30.30R
MONUMENT HILL  CLEAR     37  18  44 SW5       30.36R
TRINIDAD       CLEAR     51  17  26 NE12      30.33R
$$

COZ042>045-048>051-090-091-100100-
...NORTHEAST COLORADO...

CITY           SKY/WX    TMP DP  RH WIND       PRES   REMARKS
GREELEY ARPT   CLEAR     43  28  56 CALM      30.27F
AKRON          CLEAR     40  31  70 W9        30.24F
BURLINGTON     CLEAR     40  29  64 NW10      30.24F
WRAY           CLOUDY    44  32  63 W8        30.22F
STERLING       CLEAR     45  32  61 NW13      30.22S
HOLYOKE        CLOUDY    43  32  65 W12       30.19F
FORT MORGAN    CLEAR     44  29  55 NW10      30.25F
$$

COZ086-089-092>099-100100-
...SOUTHEAST COLORADO...

CITY           SKY/WX    TMP DP  RH WIND       PRES   REMARKS
PUEBLO         CLEAR     54  21  27 SE8       30.31R
LA JUNTA       PTCLDY    53  26  35 NE6       30.31S
LAMAR          CLEAR     55  25  31 N14       30.28R
SPRINGFIELD      N/A     49  26  41 N13       30.30R
$$




USA.gov is the U.S. government's official web portal to all federal, state and local government web resources and services.